Hourly Data Report for October 25, 2014

All times are specified in Local Standard Time (LST). Add 1 hour to adjust for Daylight Saving Time where and when it is observed.

CHARLOTTETOWN A
PRINCE EDWARD ISLAND

46°17'21.000" N
63°07'09.000" W
48.50 m
8300301
71706
YYG

Download Data

Hourly Data (October 2014)
Hourly Data Report for October 25, 2014
Temp Definition
°C
Dew Point Temp Definition
°C
Rel Hum Definition
%
Wind Dir Definition
10's deg

Wind Spd Definition
km/h
Visibility Definition
km
Stn Press Definition
kPa
Hmdx Definition


Wind Chill Definition


Weather Definition


TIME
00:00 Legend Double Dagger 10.5 10.4 99 36 15 0.8 99.03     Rain Showers,Fog
01:00 Legend Double Dagger 10.3 10.2 99 36 16 0.8 99.00     Drizzle,Fog
02:00 Legend Double Dagger 10.3 10.2 99 36 15 0.8 98.98     Drizzle,Fog
03:00 Legend Double Dagger 10.3 10.2 99 36 17 1.2 98.98     Drizzle,Fog
04:00 Legend Double Dagger 10.2 9.9 98 35 16 4.0 98.99     Drizzle,Fog
05:00 Legend Double Dagger 10.0 9.7 98 35 18 4.0 99.02     Drizzle,Fog
06:00 Legend Double Dagger 9.9 9.6 98 36 17 4.0 99.06     Drizzle,Fog
07:00 Legend Double Dagger 9.6 9.3 98 35 17 3.2 99.12     Drizzle,Fog
08:00 Legend Double Dagger 9.6 9.3 98 36 16 4.0 99.17     Drizzle,Fog
09:00 Legend Double Dagger 9.2 8.8 97 1 20 4.0 99.17     Drizzle,Fog
10:00 Legend Double Dagger 9.4 8.8 96 35 15 3.2 99.20     Drizzle,Fog
11:00 Legend Double Dagger 9.5 9.1 97 36 12 3.2 99.21     Drizzle,Fog
12:00 Legend Double Dagger 9.6 9.0 96 35 18 4.8 99.16     Drizzle,Fog
13:00 Legend Double Dagger 9.4 8.5 94 36 20 4.8 99.17     Drizzle,Fog
14:00 Legend Double Dagger 9.2 8.6 96 34 17 4.8 99.17     Drizzle,Fog
15:00 Legend Double Dagger 9.1 8.5 96 34 14 8.1 99.17     Drizzle,Fog
16:00 Legend Double Dagger 8.9 8.0 94 33 17 8.1 99.18     Drizzle,Fog
17:00 Legend Double Dagger 8.4 7.8 96 33 9 6.4 99.22     Drizzle,Fog
18:00 Legend Double Dagger 7.9 7.5 97 33 9 16.1 99.23     Drizzle
19:00 Legend Double Dagger 8.0 7.6 97 25 12 12.9 99.29     Drizzle
20:00 Legend Double Dagger 8.0 7.6 97 29 8 16.1 99.24     Drizzle
21:00 Legend Double Dagger 8.0 7.7 98 26 8 16.1 99.23     Drizzle
22:00 Legend Double Dagger 8.0 7.4 96 26 9 24.1 99.22     LegendNANA
23:00 Legend Double Dagger 7.9 7.3 96 26 8 19.3 99.23     Cloudy

Notes on Data Quality.

Legend

  • E = Estimated
  • M = Missing
  • NA = Not Available
  • ‡ = Partner data that is not subject to review by the National Climate Archives
Date modified: